Location: LDNL
(36.4545°S, 141.6685°E)
Time: 12:48:42
(UTC+10:00)

Tiros 1 despin weight - Pass Details

Date: 08 August 2022
Orbit: 590 x 639 km, 48.2° (Epoch: 23 September)

Event Time Altitude Azimuth Distance (km) Brightness Sun altitude
Rises 06:54:14 0° 232° (SW) 2,966 - -6.6°
Exits shadow 06:55:32 - 228° (SW) 2,497 ? -6.4°
Reaches altitude 10° 06:56:48 10° 222° (SW) 2,054 ? -6.1°
Maximum altitude 07:01:03 32° 158° (SSE) 1,111 ? -5.3°
Drops below altitude 10° 07:05:17 10° 94° (E) 2,034 ? -4.5°
Sets 07:07:48 0° 84° (E) 2,933 ? -4.0°
